• In Germany
  • List of Countries
  • For 7 days
  • Water Temperature
  • Satellite Maps
  • Weather Map
  • Weather Widgets
  • user-avatar
    Login

    Hourly Weather Annaba

    Today, 27 May, Sunday

    Time Temperature Precipitation Wind Pressure Humidity
    00:00 +27°C° 0 mm 3 mps 758 mmHg 48%
    01:00 +27°C° 0 mm 3 mps 758 mmHg 46%
    02:00 +27°C° 0 mm 3 mps 758 mmHg 45%
    03:00 +26°C° 0 mm 3 mps 758 mmHg 45%
    04:00 +26°C° 0 mm 3 mps 758 mmHg 44%
    05:00 +27°C° 0 mm 3 mps 758 mmHg 45%
    06:00 +27°C° 0 mm 3 mps 758 mmHg 46%
    07:00 +28°C° 0 mm 3 mps 758 mmHg 47%
    08:00 +30°C° 0 mm 3 mps 758 mmHg 42%
    09:00 +34°C° 0 mm 3 mps 758 mmHg 37%
    10:00 +36°C° 0 mm 2 mps 758 mmHg 32%
    11:00 +37°C° 0 mm 2 mps 758 mmHg 30%
    12:00 +38°C° 0 mm 3 mps 758 mmHg 28%
    13:00 +38°C° 0 mm 3 mps 758 mmHg 26%
    14:00 +37°C° 0 mm 4 mps 758 mmHg 33%
    15:00 +35°C° 0 mm 5 mps 758 mmHg 40%
    16:00 +33°C° 0 mm 6 mps 758 mmHg 46%
    17:00 +30°C° 0 mm 4 mps 758 mmHg 53%
    18:00 +29°C° 0 mm 3 mps 758 mmHg 60%
    19:00 +27°C° 0 mm 2 mps 758 mmHg 67%
    20:00 +26°C° 0.1 mm 1 mps 759 mmHg 70%
    21:00 +25°C° 0.1 mm 1 mps 759 mmHg 74%
    22:00 +23°C° 0.1 mm 1 mps 760 mmHg 77%
    23:00 +23°C° 0 mm 1 mps 760 mmHg 76%

    Tomorrow, 28 May, Monday

    Time Temperature Precipitation Wind Pressure Humidity
    00:00 +23°C° 0 mm 1 mps 760 mmHg 75%
    01:00 +23°C° 0 mm 1 mps 759 mmHg 75%
    02:00 +23°C° 0 mm 1 mps 759 mmHg 76%
    03:00 +21°C° 0 mm 2 mps 759 mmHg 77%
    04:00 +21°C° 0 mm 2 mps 759 mmHg 78%
    05:00 +23°C° 0 mm 2 mps 759 mmHg 77%
    06:00 +23°C° 0 mm 2 mps 759 mmHg 75%
    07:00 +24°C° 0 mm 1 mps 759 mmHg 73%
    08:00 +26°C° 0.1 mm 2 mps 759 mmHg 67%
    09:00 +27°C° 0.1 mm 2 mps 758 mmHg 61%
    10:00 +29°C° 0.1 mm 3 mps 758 mmHg 56%
    11:00 +30°C° 0.3 mm 3 mps 758 mmHg 53%
    12:00 +32°C° 0.3 mm 4 mps 757 mmHg 51%
    13:00 +33°C° 0.3 mm 5 mps 757 mmHg 49%
    14:00 +33°C° 0.4 mm 5 mps 756 mmHg 52%
    15:00 +32°C° 0.4 mm 4 mps 756 mmHg 56%
    16:00 +30°C° 0.4 mm 4 mps 756 mmHg 59%
    17:00 +28°C° 0.5 mm 4 mps 756 mmHg 67%
    18:00 +26°C° 0.5 mm 4 mps 756 mmHg 75%
    19:00 +23°C° 0.5 mm 4 mps 756 mmHg 83%
    20:00 +23°C° 0.1 mm 4 mps 757 mmHg 86%
    21:00 +22°C° 0.1 mm 4 mps 757 mmHg 90%
    22:00 +21°C° 0.1 mm 3 mps 758 mmHg 93%
    23:00 +21°C° 0 mm 3 mps 758 mmHg 94%

    Day after tomorrow, 29 May, Tuesday

    Time Temperature Precipitation Wind Pressure Humidity
    00:00 +20°C° 0 mm 3 mps 758 mmHg 94%
    01:00 +20°C° 0 mm 3 mps 758 mmHg 95%
    02:00 +20°C° 0 mm 3 mps 758 mmHg 95%
    03:00 +20°C° 0 mm 3 mps 758 mmHg 96%
    04:00 +19°C° 0 mm 3 mps 758 mmHg 96%
    05:00 +20°C° 0 mm 3 mps 758 mmHg 94%
    06:00 +20°C° 0 mm 3 mps 758 mmHg 92%
    07:00 +21°C° 0 mm 3 mps 758 mmHg 90%
    08:00 +22°C° 0 mm 3 mps 758 mmHg 83%
    09:00 +24°C° 0 mm 3 mps 758 mmHg 76%
    10:00 +26°C° 0 mm 3 mps 758 mmHg 70%
    11:00 +26°C° 0 mm 4 mps 758 mmHg 67%
    12:00 +27°C° 0 mm 4 mps 758 mmHg 63%
    13:00 +28°C° 0 mm 4 mps 757 mmHg 60%
    14:00 +28°C° 0 mm 4 mps 757 mmHg 64%
    15:00 +27°C° 0 mm 4 mps 757 mmHg 67%
    16:00 +26°C° 0 mm 4 mps 757 mmHg 70%
    17:00 +26°C° 0 mm 4 mps 757 mmHg 74%
    18:00 +25°C° 0 mm 3 mps 757 mmHg 77%
    19:00 +24°C° 0 mm 3 mps 757 mmHg 80%
    20:00 +22°C° 0 mm 3 mps 758 mmHg 85%
    21:00 +21°C° 0 mm 2 mps 758 mmHg 90%
    22:00 +20°C° 0 mm 2 mps 759 mmHg 95%
    23:00 +20°C° 0 mm 2 mps 759 mmHg 95%

    30 May, Wednesday

    Time Temperature Precipitation Wind Pressure Humidity
    00:00 +19°C° 0 mm 2 mps 759 mmHg 95%
    01:00 +20°C° 0 mm 1 mps 759 mmHg 95%
    02:00 +20°C° 0 mm 1 mps 758 mmHg 95%
    03:00 +20°C° 0 mm 1 mps 758 mmHg 95%
    04:00 +19°C° 0 mm 1 mps 758 mmHg 94%
    05:00 +20°C° 0 mm 1 mps 758 mmHg 91%
    06:00 +21°C° 0 mm 1 mps 758 mmHg 87%
    07:00 +22°C° 0 mm 1 mps 758 mmHg 83%
    08:00 +24°C° 0 mm 1 mps 758 mmHg 75%
    09:00 +26°C° 0 mm 1 mps 758 mmHg 66%
    10:00 +27°C° 0 mm 2 mps 758 mmHg 58%
    11:00 +28°C° 0 mm 2 mps 758 mmHg 55%
    12:00 +29°C° 0 mm 3 mps 758 mmHg 52%
    13:00 +30°C° 0 mm 3 mps 758 mmHg 49%
    14:00 +30°C° 0 mm 4 mps 758 mmHg 52%
    15:00 +29°C° 0 mm 4 mps 757 mmHg 54%
    16:00 +29°C° 0 mm 4 mps 757 mmHg 57%
    17:00 +27°C° 0.5 mm 4 mps 758 mmHg 66%
    18:00 +26°C° 0.5 mm 3 mps 758 mmHg 74%
    19:00 +24°C° 0.5 mm 2 mps 758 mmHg 83%
    20:00 +23°C° 0.5 mm 2 mps 758 mmHg 86%
    21:00 +23°C° 0.5 mm 2 mps 759 mmHg 89%
    22:00 +22°C° 0.5 mm 1 mps 759 mmHg 93%
    23:00 +22°C° 0.4 mm 1 mps 759 mmHg 94%

    31 May, Thursday

    Time Temperature Precipitation Wind Pressure Humidity
    00:00 +21°C° 0.4 mm 1 mps 758 mmHg 94%
    01:00 +21°C° 0.4 mm 1 mps 758 mmHg 95%
    02:00 +20°C° 0.2 mm 2 mps 758 mmHg 95%
    03:00 +20°C° 0.2 mm 2 mps 758 mmHg 95%
    04:00 +19°C° 0.2 mm 3 mps 758 mmHg 95%
    05:00 +20°C° 0.1 mm 3 mps 758 mmHg 94%
    06:00 +20°C° 0.1 mm 2 mps 759 mmHg 94%
    07:00 +20°C° 0.1 mm 2 mps 759 mmHg 93%
    08:00 +21°C° 0 mm 2 mps 759 mmHg 89%
    09:00 +23°C° 0 mm 2 mps 759 mmHg 84%
    10:00 +24°C° 0 mm 2 mps 759 mmHg 79%
    11:00 +26°C° 0 mm 2 mps 759 mmHg 72%
    12:00 +27°C° 0 mm 3 mps 759 mmHg 66%
    13:00 +29°C° 0 mm 3 mps 759 mmHg 59%
    14:00 +28°C° 0 mm 4 mps 759 mmHg 60%
    15:00 +28°C° 0 mm 4 mps 759 mmHg 62%
    16:00 +28°C° 0 mm 5 mps 759 mmHg 63%
    17:00 +26°C° 0.2 mm 4 mps 759 mmHg 70%
    18:00 +25°C° 0.2 mm 3 mps 759 mmHg 77%
    19:00 +23°C° 0.2 mm 2 mps 759 mmHg 84%
    20:00 +23°C° 0.1 mm 2 mps 760 mmHg 86%
    21:00 +21°C° 0.1 mm 2 mps 760 mmHg 89%
    22:00 +21°C° 0.1 mm 1 mps 761 mmHg 91%
    23:00 +21°C° 0.2 mm 1 mps 761 mmHg 92%

    1 June, Friday

    Time Temperature Precipitation Wind Pressure Humidity
    00:00 +20°C° 0.2 mm 2 mps 761 mmHg 93%
    01:00 +19°C° 0.2 mm 2 mps 760 mmHg 94%
    02:00 +20°C° 0.3 mm 1 mps 760 mmHg 94%
    03:00 +20°C° 0.3 mm 1 mps 760 mmHg 94%
    04:00 +19°C° 0.3 mm 1 mps 760 mmHg 95%
    05:00 +20°C° 0 mm 1 mps 760 mmHg 92%
    06:00 +21°C° 0 mm 1 mps 761 mmHg 89%
    07:00 +22°C° 0 mm 1 mps 761 mmHg 85%
    08:00 +24°C° 0 mm 1 mps 761 mmHg 77%
    09:00 +26°C° 0 mm 1 mps 761 mmHg 69%
    10:00 +28°C° 0 mm 1 mps 761 mmHg 61%
    11:00 +28°C° 0 mm 2 mps 760 mmHg 59%
    12:00 +29°C° 0 mm 3 mps 760 mmHg 56%
    13:00 +30°C° 0 mm 3 mps 760 mmHg 53%
    14:00 +30°C° 0 mm 4 mps 760 mmHg 55%
    15:00 +29°C° 0 mm 4 mps 759 mmHg 56%
    16:00 +29°C° 0 mm 4 mps 759 mmHg 58%
    17:00 +28°C° 0.3 mm 3 mps 759 mmHg 64%
    18:00 +26°C° 0.3 mm 3 mps 760 mmHg 69%
    19:00 +25°C° 0.3 mm 2 mps 760 mmHg 75%
    20:00 +24°C° 0.1 mm 2 mps 760 mmHg 78%
    21:00 +23°C° 0.1 mm 1 mps 760 mmHg 82%
    22:00 +20°C° 0.1 mm 0 mps 761 mmHg 85%
    23:00 +22°C° 0.9 mm 1 mps 761 mmHg 86%
    Show more